Regional Weather Roundup
Issued by NWS

Home | Current Version | Previous Version | Graphics & Text | Print | Product List | Glossary On
Versions: 1 2 3 4 5 6 7 8 9 10 11 12 13 14 15 16 17 18 19 20 21 22 23 24 25 26 27 28 29 30 31 32 33 34 35 36 37 38 39 40 41 42 43 44 45 46 47 48 49 50
000
ASUS43 KLMK 011402
RWRKY
KENTUCKY REGIONAL WEATHER ROUNDUP
NATIONAL WEATHER SERVICE LOUISVILLE KY
900 AM EST SUN FEB 01 2015

NOTE "FAIR" INDICATES FEW OR NO CLOUDS BELOW 12,000 FEET
WITH NO SIGNIFICANT WEATHER AND/OR OBSTRUCTIONS TO VISIBILITY.

KYZ001>023-026-027-061>063-070>075-011500-
WESTERN AND SOUTH CENTRAL KENTUCKY

CITY           SKY/WX    TMP DP  RH WIND       PRES   REMARKS
PADUCAH        RAIN      43  39  86 S14G24    29.81F FOG
HENDERSON      CLOUDY    43  27  52 S13G18    29.85F
OWENSBORO      LGT RAIN  44  30  58 S12G18    29.88F
HOPKINSVILLE   LGT RAIN  45  36  71 S10       29.92F
BOWLING GREEN  LGT RAIN  48  26  42 S17G24    29.97F
GLASGOW        NOT AVBL
$$

KYZ024-025-028>034-038-045-046-053-011500-
NORTH CENTRAL KENTUCKY

CITY           SKY/WX    TMP DP  RH WIND       PRES   REMARKS
LOUISVILLE/SDF CLOUDY    42  18  37 SE10      29.96F
LOUISVILLE/LOU CLOUDY    42  17  36 S6        29.98F
FORT KNOX      CLOUDY    43  20  39 SE16      29.94F
$$

KYZ035>037-039>044-047>052-055>060-089>105-011500-
NORTHEAST KENTUCKY

CITY           SKY/WX    TMP DP  RH WIND       PRES   REMARKS
LEXINGTON      CLOUDY    39  17  41 SE16      30.01F WCI  30
COVINGTON      NOT AVBL
FRANKFORT      CLOUDY    39  21  48 SE13      29.98F WCI  31
$$

KYZ054-064>069-076>088-106>120-011500-
SOUTHEAST KENTUCKY

CITY           SKY/WX    TMP DP  RH WIND       PRES   REMARKS
JACKSON        CLOUDY    38  14  37 VRB5      30.07F WCI  34
LONDON         CLOUDY    42  14  32 SE5       30.05F
SOMERSET       NOT AVBL
MIDDLESBORO    NOT AVBL
MONTICELLO     CLOUDY    47  20  34 S13       30.07F
$$




USA.gov is the U.S. government's official web portal to all federal, state and local government web resources and services.